Time,TemperatureF,DewpointF,PressureIn,WindDirection,WindDirectionDegrees,WindSpeedMPH,WindSpeedGustMPH,Humidity,HourlyPrecipIn,Conditions,Clouds,dailyrainin,SoftwareType,DateUTC
2013-11-11 00:01:00,46.2,31.8,30.16,NNE,16,4.0,7.0,57,0.00,,,0.00,Wunderground v.1.15,2013-11-11 05:01:00,
2013-11-11 00:02:00,46.2,31.4,30.16,NNE,25,0.0,7.0,56,0.00,,,0.00,Wunderground v.1.15,2013-11-11 05:02:00,
2013-11-11 00:07:00,46.2,31.4,30.16,NE,42,3.0,3.0,56,0.00,,,0.00,Wunderground v.1.15,2013-11-11 05:07:00,
2013-11-11 00:12:00,45.8,31.9,30.16,NE,48,5.0,5.0,58,0.00,,,0.00,Wunderground v.1.15,2013-11-11 05:12:00,
2013-11-11 00:18:00,45.7,31.3,30.16,NE,37,2.0,3.0,57,0.00,,,0.00,Wunderground v.1.15,2013-11-11 05:18:00,
2013-11-11 00:23:00,45.7,31.3,30.16,ENE,78,2.0,4.0,57,0.00,,,0.00,Wunderground v.1.15,2013-11-11 05:23:00,
2013-11-11 00:28:00,45.4,31.5,30.16,ENE,66,5.0,5.0,58,0.00,,,0.00,Wunderground v.1.15,2013-11-11 05:28:00,
2013-11-11 00:33:00,45.2,31.3,30.16,ENE,61,4.0,5.0,58,0.00,,,0.00,Wunderground v.1.15,2013-11-11 05:33:00,
2013-11-11 00:39:00,45.2,30.4,30.17,NE,54,3.0,5.0,56,0.00,,,0.00,Wunderground v.1.15,2013-11-11 05:39:00,
2013-11-11 00:44:00,45.4,30.6,30.17,ENE,61,5.0,5.0,56,0.00,,,0.00,Wunderground v.1.15,2013-11-11 05:44:00,
2013-11-11 00:49:00,45.7,30.4,30.17,ENE,76,2.0,6.0,55,0.00,,,0.00,Wunderground v.1.15,2013-11-11 05:49:00,
2013-11-11 00:56:00,45.5,29.8,30.17,East,82,3.0,3.0,54,0.00,,,0.00,Wunderground v.1.15,2013-11-11 05:56:00,
2013-11-11 01:01:00,45.5,29.8,30.17,NE,51,5.0,5.0,54,0.00,,,0.00,Wunderground v.1.15,2013-11-11 06:01:00,
2013-11-11 01:08:00,45.4,29.7,30.17,ENE,76,3.0,3.0,54,0.00,,,0.00,Wunderground v.1.15,2013-11-11 06:08:00,
2013-11-11 01:13:00,45.2,29.5,30.17,ENE,59,2.0,10.0,54,0.00,,,0.00,Wunderground v.1.15,2013-11-11 06:13:00,
2013-11-11 01:19:00,44.9,31.0,30.17,NE,44,2.0,3.0,58,0.00,,,0.00,Wunderground v.1.15,2013-11-11 06:19:00,
2013-11-11 01:24:00,44.5,29.3,30.17,NE,41,1.0,4.0,55,0.00,,,0.00,Wunderground v.1.15,2013-11-11 06:24:00,
2013-11-11 01:29:00,44.2,29.0,30.17,ENE,69,2.0,3.0,55,0.00,,,0.00,Wunderground v.1.15,2013-11-11 06:29:00,
2013-11-11 01:34:00,43.6,30.2,30.17,ENE,61,2.0,3.0,59,0.00,,,0.00,Wunderground v.1.15,2013-11-11 06:34:00,
2013-11-11 01:39:00,43.1,28.9,30.18,NE,35,4.0,4.0,57,0.00,,,0.00,Wunderground v.1.15,2013-11-11 06:39:00,
2013-11-11 01:46:00,43.1,29.3,30.18,NE,56,3.0,3.0,58,0.00,,,0.00,Wunderground v.1.15,2013-11-11 06:46:00,
2013-11-11 01:51:00,43.1,29.3,30.18,NE,38,4.0,6.0,58,0.00,,,0.00,Wunderground v.1.15,2013-11-11 06:51:00,
2013-11-11 01:56:00,43.3,29.1,30.18,NE,48,3.0,4.0,57,0.00,,,0.00,Wunderground v.1.15,2013-11-11 06:56:00,
2013-11-11 02:01:00,43.3,29.1,30.18,NE,55,6.0,6.0,57,0.00,,,0.00,Wunderground v.1.15,2013-11-11 07:01:00,
2013-11-11 02:08:00,43.5,28.4,30.18,ENE,69,3.0,5.0,55,0.00,,,0.00,Wunderground v.1.15,2013-11-11 07:08:00,
2013-11-11 02:13:00,43.5,28.4,30.18,NE,40,3.0,5.0,55,0.00,,,0.00,Wunderground v.1.15,2013-11-11 07:13:00,
2013-11-11 02:18:00,43.6,28.0,30.18,NNE,30,2.0,4.0,54,0.00,,,0.00,Wunderground v.1.15,2013-11-11 07:18:00,
2013-11-11 02:23:00,43.8,28.2,30.17,East,85,2.0,6.0,54,0.00,,,0.00,Wunderground v.1.15,2013-11-11 07:23:00,
2013-11-11 02:28:00,43.8,28.2,30.17,NW,316,0.0,2.0,54,0.00,,,0.00,Wunderground v.1.15,2013-11-11 07:28:00,
2013-11-11 02:33:00,43.6,28.5,30.17,NW,316,0.0,2.0,55,0.00,,,0.00,Wunderground v.1.15,2013-11-11 07:33:00,
2013-11-11 02:38:00,43.1,28.9,30.17,NW,319,1.0,3.0,57,0.00,,,0.00,Wunderground v.1.15,2013-11-11 07:38:00,
2013-11-11 02:43:00,42.9,27.8,30.17,NW,326,0.0,3.0,55,0.00,,,0.00,Wunderground v.1.15,2013-11-11 07:43:00,
2013-11-11 02:48:00,42.8,29.5,30.17,NW,326,0.0,1.0,59,0.00,,,0.00,Wunderground v.1.15,2013-11-11 07:48:00,
2013-11-11 02:53:00,41.9,30.6,30.17,NNW,347,2.0,3.0,64,0.00,,,0.00,Wunderground v.1.15,2013-11-11 07:53:00,
2013-11-11 02:58:00,40.8,29.6,30.17,NE,44,5.0,6.0,64,0.00,,,0.00,Wunderground v.1.15,2013-11-11 07:58:00,
2013-11-11 03:03:00,40.6,28.6,30.17,NNE,28,2.0,6.0,62,0.00,,,0.00,Wunderground v.1.15,2013-11-11 08:03:00,
2013-11-11 03:08:00,40.6,28.6,30.19,NE,34,2.0,5.0,62,0.00,,,0.00,Wunderground v.1.15,2013-11-11 08:08:00,
2013-11-11 03:13:00,40.6,29.4,30.19,NE,49,3.0,5.0,64,0.00,,,0.00,Wunderground v.1.15,2013-11-11 08:13:00,
2013-11-11 03:18:00,40.3,29.1,30.19,ENE,64,2.0,5.0,64,0.00,,,0.00,Wunderground v.1.15,2013-11-11 08:18:00,
2013-11-11 03:23:00,40.2,29.4,30.19,ENE,62,3.0,5.0,65,0.00,,,0.00,Wunderground v.1.15,2013-11-11 08:23:00,
2013-11-11 03:28:00,40.1,29.3,30.19,NE,38,2.0,4.0,65,0.00,,,0.00,Wunderground v.1.15,2013-11-11 08:28:00,
2013-11-11 03:33:00,40.1,28.5,30.19,NE,38,3.0,5.0,63,0.00,,,0.00,Wunderground v.1.15,2013-11-11 08:33:00,
2013-11-11 03:38:00,40.2,28.2,30.19,NNE,18,6.0,6.0,62,0.00,,,0.00,Wunderground v.1.15,2013-11-11 08:38:00,
2013-11-11 03:43:00,40.5,28.1,30.19,NE,41,2.0,6.0,61,0.00,,,0.00,Wunderground v.1.15,2013-11-11 08:43:00,
2013-11-11 03:48:00,40.8,28.0,30.19,NE,41,1.0,3.0,60,0.00,,,0.00,Wunderground v.1.15,2013-11-11 08:48:00,
2013-11-11 03:53:00,40.9,28.1,30.19,NE,41,0.0,3.0,60,0.00,,,0.00,Wunderground v.1.15,2013-11-11 08:53:00,
2013-11-11 03:58:00,40.9,28.1,30.19,NE,40,0.0,2.0,60,0.00,,,0.00,Wunderground v.1.15,2013-11-11 08:58:00,
2013-11-11 04:03:00,40.9,27.7,30.19,NE,40,0.0,2.0,59,0.00,,,0.00,Wunderground v.1.15,2013-11-11 09:03:00,
2013-11-11 04:08:00,40.9,27.7,30.19,NE,40,0.0,1.0,59,0.00,,,0.00,Wunderground v.1.15,2013-11-11 09:08:00,
2013-11-11 04:13:00,40.8,28.0,30.19,NE,40,0.0,1.0,60,0.00,,,0.00,Wunderground v.1.15,2013-11-11 09:13:00,
2013-11-11 04:18:00,40.6,27.4,30.19,NE,40,0.0,0.0,59,0.00,,,0.00,Wunderground v.1.15,2013-11-11 09:18:00,
2013-11-11 04:23:00,40.6,27.8,30.19,NE,40,0.0,0.0,60,0.00,,,0.00,Wunderground v.1.15,2013-11-11 09:23:00,
2013-11-11 04:28:00,40.3,27.9,30.19,NE,40,1.0,1.0,61,0.00,,,0.00,Wunderground v.1.15,2013-11-11 09:28:00,
2013-11-11 04:33:00,40.2,27.8,30.19,NE,40,0.0,2.0,61,0.00,,,0.00,Wunderground v.1.15,2013-11-11 09:33:00,
2013-11-11 04:38:00,39.9,27.9,30.20,NE,40,0.0,0.0,62,0.00,,,0.00,Wunderground v.1.15,2013-11-11 09:38:00,
2013-11-11 04:43:00,39.6,28.4,30.20,NE,40,0.0,0.0,64,0.00,,,0.00,Wunderground v.1.15,2013-11-11 09:43:00,
2013-11-11 04:48:00,39.5,28.3,30.20,NE,40,0.0,0.0,64,0.00,,,0.00,Wunderground v.1.15,2013-11-11 09:48:00,
2013-11-11 04:53:00,39.3,28.5,30.21,NE,40,0.0,0.0,65,0.00,,,0.00,Wunderground v.1.15,2013-11-11 09:53:00,
2013-11-11 04:59:00,39.2,28.4,30.21,NE,40,0.0,0.0,65,0.00,,,0.00,Wunderground v.1.15,2013-11-11 09:59:00,
2013-11-11 05:04:00,38.9,27.8,30.21,NE,40,0.0,0.0,64,0.00,,,0.00,Wunderground v.1.15,2013-11-11 10:04:00,
2013-11-11 05:09:00,38.8,28.0,30.22,NE,40,0.0,0.0,65,0.00,,,0.00,Wunderground v.1.15,2013-11-11 10:09:00,
2013-11-11 05:14:00,38.8,28.0,30.22,NE,40,0.0,0.0,65,0.00,,,0.00,Wunderground v.1.15,2013-11-11 10:14:00,
2013-11-11 05:19:00,38.6,28.2,30.22,NE,40,0.0,0.0,66,0.00,,,0.00,Wunderground v.1.15,2013-11-11 10:19:00,
2013-11-11 05:24:00,38.5,28.1,30.23,NE,40,1.0,2.0,66,0.00,,,0.00,Wunderground v.1.15,2013-11-11 10:24:00,
2013-11-11 05:29:00,38.3,28.3,30.23,NE,40,2.0,3.0,67,0.00,,,0.00,Wunderground v.1.15,2013-11-11 10:29:00,
2013-11-11 05:34:00,38.2,28.6,30.23,NE,40,1.0,3.0,68,0.00,,,0.00,Wunderground v.1.15,2013-11-11 10:34:00,
2013-11-11 05:39:00,38.0,28.4,30.23,NE,40,0.0,2.0,68,0.00,,,0.00,Wunderground v.1.15,2013-11-11 10:39:00,
2013-11-11 05:44:00,37.8,28.5,30.23,NE,40,1.0,2.0,69,0.00,,,0.00,Wunderground v.1.15,2013-11-11 10:44:00,
2013-11-11 05:49:00,37.8,28.2,30.23,NE,40,0.0,1.0,68,0.00,,,0.00,Wunderground v.1.15,2013-11-11 10:49:00,
2013-11-11 05:54:00,37.8,28.2,30.24,NE,40,1.0,2.0,68,0.00,,,0.00,Wunderground v.1.15,2013-11-11 10:54:00,
2013-11-11 05:59:00,37.6,28.3,30.24,NE,40,1.0,3.0,69,0.00,,,0.00,Wunderground v.1.15,2013-11-11 10:59:00,
2013-11-11 06:04:00,37.5,28.2,30.24,NE,40,0.0,3.0,69,0.00,,,0.00,Wunderground v.1.15,2013-11-11 11:04:00,
2013-11-11 06:09:00,37.3,28.1,30.25,NE,40,0.0,1.0,69,0.00,,,0.00,Wunderground v.1.15,2013-11-11 11:09:00,
2013-11-11 06:14:00,37.2,28.3,30.25,NE,40,0.0,1.0,70,0.00,,,0.00,Wunderground v.1.15,2013-11-11 11:14:00,
2013-11-11 06:19:00,37.0,28.1,30.25,NE,40,0.0,0.0,70,0.00,,,0.00,Wunderground v.1.15,2013-11-11 11:19:00,
2013-11-11 06:24:00,37.0,28.1,30.25,NE,40,1.0,2.0,70,0.00,,,0.00,Wunderground v.1.15,2013-11-11 11:24:00,
2013-11-11 06:29:00,36.9,28.0,30.25,NE,40,0.0,1.0,70,0.00,,,0.00,Wunderground v.1.15,2013-11-11 11:29:00,
2013-11-11 06:36:00,36.6,27.7,30.25,NE,40,0.0,0.0,70,0.00,,,0.00,Wunderground v.1.15,2013-11-11 11:36:00,
2013-11-11 06:41:00,36.6,27.7,30.26,NE,40,0.0,0.0,70,0.00,,,0.00,Wunderground v.1.15,2013-11-11 11:41:00,
2013-11-11 06:47:00,36.5,27.6,30.26,NE,40,0.0,0.0,70,0.00,,,0.00,Wunderground v.1.15,2013-11-11 11:47:00,
2013-11-11 06:52:00,36.3,27.8,30.27,NE,40,0.0,0.0,71,0.00,,,0.00,Wunderground v.1.15,2013-11-11 11:52:00,
2013-11-11 06:57:00,36.2,27.7,30.27,NE,40,0.0,0.0,71,0.00,,,0.00,Wunderground v.1.15,2013-11-11 11:57:00,
2013-11-11 07:02:00,36.0,27.8,30.27,NE,40,0.0,0.0,72,0.00,,,0.00,Wunderground v.1.15,2013-11-11 12:02:00,
2013-11-11 07:07:00,36.0,27.8,30.28,NE,40,0.0,0.0,72,0.00,,,0.00,Wunderground v.1.15,2013-11-11 12:07:00,
2013-11-11 07:13:00,36.0,27.5,30.28,NE,40,0.0,0.0,71,0.00,,,0.00,Wunderground v.1.15,2013-11-11 12:13:00,
2013-11-11 07:18:00,36.3,27.4,30.28,NE,40,0.0,0.0,70,0.00,,,0.00,Wunderground v.1.15,2013-11-11 12:18:00,
2013-11-11 07:23:00,36.6,27.0,30.28,NE,40,0.0,0.0,68,0.00,,,0.00,Wunderground v.1.15,2013-11-11 12:23:00,
2013-11-11 07:28:00,36.9,27.0,30.28,NE,40,0.0,0.0,67,0.00,,,0.00,Wunderground v.1.15,2013-11-11 12:28:00,
2013-11-11 07:33:00,37.0,27.1,30.28,NE,40,0.0,0.0,67,0.00,,,0.00,Wunderground v.1.15,2013-11-11 12:33:00,
2013-11-11 07:38:00,37.0,27.8,30.28,NE,40,0.0,0.0,69,0.00,,,0.00,Wunderground v.1.15,2013-11-11 12:38:00,
2013-11-11 07:43:00,37.0,27.8,30.28,NE,40,0.0,0.0,69,0.00,,,0.00,Wunderground v.1.15,2013-11-11 12:43:00,
2013-11-11 07:48:00,37.2,28.0,30.28,NE,40,0.0,0.0,69,0.00,,,0.00,Wunderground v.1.15,2013-11-11 12:48:00,
2013-11-11 07:53:00,37.3,29.1,30.28,NE,40,0.0,0.0,72,0.00,,,0.00,Wunderground v.1.15,2013-11-11 12:53:00,
2013-11-11 07:58:00,37.5,28.2,30.28,NE,38,0.0,0.0,69,0.00,,,0.00,Wunderground v.1.15,2013-11-11 12:58:00,
2013-11-11 08:03:00,37.6,28.0,30.28,NE,38,0.0,0.0,68,0.00,,,0.00,Wunderground v.1.15,2013-11-11 13:03:00,
2013-11-11 08:08:00,37.8,28.2,30.28,NE,38,0.0,0.0,68,0.00,,,0.00,Wunderground v.1.15,2013-11-11 13:08:00,
2013-11-11 08:13:00,38.0,29.4,30.28,NE,38,0.0,0.0,71,0.00,,,0.00,Wunderground v.1.15,2013-11-11 13:13:00,
2013-11-11 08:18:00,38.3,30.1,30.28,NE,38,0.0,0.0,72,0.00,,,0.00,Wunderground v.1.15,2013-11-11 13:18:00,
2013-11-11 08:23:00,38.8,30.5,30.29,NE,38,0.0,0.0,72,0.00,,,0.00,Wunderground v.1.15,2013-11-11 13:23:00,
2013-11-11 08:28:00,39.5,30.2,30.29,NE,38,0.0,0.0,69,0.00,,,0.00,Wunderground v.1.15,2013-11-11 13:28:00,
2013-11-11 08:34:00,40.1,31.1,30.29,NE,40,0.0,2.0,70,0.00,,,0.00,Wunderground v.1.15,2013-11-11 13:34:00,
2013-11-11 08:39:00,40.5,31.1,30.29,NE,40,0.0,1.0,69,0.00,,,0.00,Wunderground v.1.15,2013-11-11 13:39:00,
2013-11-11 08:44:00,40.8,31.4,30.29,NE,40,0.0,1.0,69,0.00,,,0.00,Wunderground v.1.15,2013-11-11 13:44:00,
2013-11-11 08:49:00,40.8,31.1,30.29,NE,40,2.0,3.0,68,0.00,,,0.00,Wunderground v.1.15,2013-11-11 13:49:00,
2013-11-11 08:54:00,40.9,30.0,30.29,NE,40,3.0,3.0,65,0.00,,,0.00,Wunderground v.1.15,2013-11-11 13:54:00,
2013-11-11 08:59:00,41.2,30.3,30.29,NE,42,2.0,3.0,65,0.00,,,0.00,Wunderground v.1.15,2013-11-11 13:59:00,
2013-11-11 09:04:00,41.3,30.4,30.29,NE,44,1.0,3.0,65,0.00,,,0.00,Wunderground v.1.15,2013-11-11 14:04:00,
2013-11-11 09:09:00,41.5,30.2,30.28,NE,44,0.0,2.0,64,0.00,,,0.00,Wunderground v.1.15,2013-11-11 14:09:00,
2013-11-11 09:14:00,42.5,31.2,30.28,NE,44,0.0,2.0,64,0.00,,,0.00,Wunderground v.1.15,2013-11-11 14:14:00,
2013-11-11 09:19:00,43.5,30.9,30.28,NE,44,0.0,0.0,61,0.00,,,0.00,Wunderground v.1.15,2013-11-11 14:19:00,
2013-11-11 09:24:00,44.1,31.5,30.28,NE,44,0.0,0.0,61,0.00,,,0.00,Wunderground v.1.15,2013-11-11 14:24:00,
2013-11-11 09:29:00,44.3,31.3,30.28,NE,44,0.0,0.0,60,0.00,,,0.00,Wunderground v.1.15,2013-11-11 14:29:00,
2013-11-11 09:34:00,44.8,31.3,30.28,SSW,200,0.0,3.0,59,0.00,,,0.00,Wunderground v.1.15,2013-11-11 14:34:00,
2013-11-11 09:39:00,45.4,31.5,30.28,WSW,251,2.0,2.0,58,0.00,,,0.00,Wunderground v.1.15,2013-11-11 14:39:00,
2013-11-11 09:44:00,45.8,31.0,30.28,SW,222,3.0,3.0,56,0.00,,,0.00,Wunderground v.1.15,2013-11-11 14:44:00,
2013-11-11 09:49:00,46.2,31.4,30.28,SSE,161,1.0,2.0,56,0.00,,,0.00,Wunderground v.1.15,2013-11-11 14:49:00,
2013-11-11 09:54:00,46.7,31.8,30.29,South,179,2.0,6.0,56,0.00,,,0.00,Wunderground v.1.15,2013-11-11 14:54:00,
2013-11-11 09:59:00,47.4,32.0,30.29,SSE,158,2.0,2.0,55,0.00,,,0.00,Wunderground v.1.15,2013-11-11 14:59:00,
2013-11-11 10:04:00,47.6,32.2,30.29,ESE,110,1.0,3.0,55,0.00,,,0.00,Wunderground v.1.15,2013-11-11 15:04:00,
2013-11-11 10:09:00,47.6,32.2,30.27,ESE,103,1.0,4.0,55,0.00,,,0.00,Wunderground v.1.15,2013-11-11 15:09:00,
2013-11-11 10:16:00,48.0,32.6,30.27,South,172,2.0,2.0,55,0.00,,,0.00,Wunderground v.1.15,2013-11-11 15:16:00,
2013-11-11 10:21:00,48.5,32.6,30.27,SSW,192,1.0,2.0,54,0.00,,,0.00,Wunderground v.1.15,2013-11-11 15:21:00,
2013-11-11 10:27:00,49.5,32.6,30.27,South,189,7.0,7.0,52,0.00,,,0.00,Wunderground v.1.15,2013-11-11 15:27:00,
2013-11-11 10:32:00,50.1,31.2,30.27,South,179,0.0,7.0,48,0.00,,,0.00,Wunderground v.1.15,2013-11-11 15:32:00,
2013-11-11 10:37:00,50.1,31.7,30.26,SSE,161,1.0,3.0,49,0.00,,,0.00,Wunderground v.1.15,2013-11-11 15:37:00,
2013-11-11 10:42:00,50.7,32.2,30.26,South,186,2.0,3.0,49,0.00,,,0.00,Wunderground v.1.15,2013-11-11 15:42:00,
2013-11-11 10:47:00,51.0,32.0,30.26,South,185,1.0,2.0,48,0.00,,,0.00,Wunderground v.1.15,2013-11-11 15:47:00,
2013-11-11 10:52:00,51.3,32.3,30.26,SSW,200,6.0,6.0,48,0.00,,,0.00,Wunderground v.1.15,2013-11-11 15:52:00,
2013-11-11 10:57:00,51.7,33.1,30.26,East,100,1.0,3.0,49,0.00,,,0.00,Wunderground v.1.15,2013-11-11 15:57:00,
2013-11-11 11:02:00,52.2,31.5,30.26,South,182,1.0,7.0,45,0.00,,,0.00,Wunderground v.1.15,2013-11-11 16:02:00,
2013-11-11 11:07:00,52.8,29.1,30.25,South,174,1.0,3.0,40,0.00,,,0.00,Wunderground v.1.15,2013-11-11 16:07:00,
2013-11-11 11:13:00,53.3,31.4,30.25,East,89,2.0,5.0,43,0.00,,,0.00,Wunderground v.1.15,2013-11-11 16:13:00,
2013-11-11 11:18:00,53.8,30.0,30.25,East,88,2.0,4.0,40,0.00,,,0.00,Wunderground v.1.15,2013-11-11 16:18:00,
2013-11-11 11:23:00,54.4,30.6,30.24,SSE,160,2.0,4.0,40,0.00,,,0.00,Wunderground v.1.15,2013-11-11 16:23:00,
2013-11-11 11:28:00,54.5,28.1,30.24,South,169,0.0,3.0,36,0.00,,,0.00,Wunderground v.1.15,2013-11-11 16:28:00,
2013-11-11 11:33:00,54.8,28.3,30.24,ENE,71,1.0,5.0,36,0.00,,,0.00,Wunderground v.1.15,2013-11-11 16:33:00,
2013-11-11 11:38:00,55.3,28.8,30.23,SSW,212,1.0,4.0,36,0.00,,,0.00,Wunderground v.1.15,2013-11-11 16:38:00,
2013-11-11 11:43:00,55.7,29.8,30.23,East,95,3.0,5.0,37,0.00,,,0.00,Wunderground v.1.15,2013-11-11 16:43:00,
2013-11-11 11:48:00,56.0,30.7,30.23,South,172,1.0,2.0,38,0.00,,,0.00,Wunderground v.1.15,2013-11-11 16:48:00,
2013-11-11 11:53:00,56.7,30.7,30.22,South,185,0.0,10.0,37,0.00,,,0.00,Wunderground v.1.15,2013-11-11 16:53:00,
2013-11-11 11:58:00,57.0,30.3,30.22,South,176,2.0,7.0,36,0.00,,,0.00,Wunderground v.1.15,2013-11-11 16:58:00,
2013-11-11 12:03:00,57.0,29.6,30.22,South,191,1.0,7.0,35,0.00,,,0.00,Wunderground v.1.15,2013-11-11 17:03:00,
2013-11-11 12:08:00,57.6,30.1,30.21,SSW,193,1.0,3.0,35,0.00,,,0.00,Wunderground v.1.15,2013-11-11 17:08:00,
2013-11-11 12:13:00,58.1,31.9,30.21,South,185,5.0,5.0,37,0.00,,,0.00,Wunderground v.1.15,2013-11-11 17:13:00,
2013-11-11 12:18:00,57.8,31.7,30.21,WSW,248,3.0,7.0,37,0.00,,,0.00,Wunderground v.1.15,2013-11-11 17:18:00,
2013-11-11 12:23:00,58.0,30.5,30.20,SW,223,8.0,8.0,35,0.00,,,0.00,Wunderground v.1.15,2013-11-11 17:23:00,
2013-11-11 12:28:00,58.0,29.0,30.20,SW,232,2.0,10.0,33,0.00,,,0.00,Wunderground v.1.15,2013-11-11 17:28:00,
2013-11-11 12:34:00,57.6,30.1,30.20,South,185,6.0,10.0,35,0.00,,,0.00,Wunderground v.1.15,2013-11-11 17:34:00,
2013-11-11 12:39:00,57.5,30.0,30.19,SSE,160,5.0,6.0,35,0.00,,,0.00,Wunderground v.1.15,2013-11-11 17:39:00,
2013-11-11 12:44:00,58.1,29.8,30.19,South,191,0.0,7.0,34,0.00,,,0.00,Wunderground v.1.15,2013-11-11 17:44:00,
2013-11-11 12:49:00,58.4,29.4,30.19,SE,134,5.0,5.0,33,0.00,,,0.00,Wunderground v.1.15,2013-11-11 17:49:00,
2013-11-11 12:54:00,58.7,30.4,30.19,SSW,192,3.0,6.0,34,0.00,,,0.00,Wunderground v.1.15,2013-11-11 17:54:00,
2013-11-11 12:59:00,59.0,30.6,30.19,South,174,6.0,8.0,34,0.00,,,0.00,Wunderground v.1.15,2013-11-11 17:59:00,
2013-11-11 13:04:00,58.4,30.1,30.19,South,174,3.0,4.0,34,0.00,,,0.00,Wunderground v.1.15,2013-11-11 18:04:00,
2013-11-11 13:09:00,58.6,29.6,30.18,SSW,202,0.0,10.0,33,0.00,,,0.00,Wunderground v.1.15,2013-11-11 18:09:00,
2013-11-11 13:14:00,58.7,29.6,30.18,SSE,165,2.0,3.0,33,0.00,,,0.00,Wunderground v.1.15,2013-11-11 18:14:00,
2013-11-11 13:19:00,58.9,30.6,30.18,SSW,192,6.0,6.0,34,0.00,,,0.00,Wunderground v.1.15,2013-11-11 18:19:00,
2013-11-11 13:24:00,59.0,30.6,30.17,South,174,2.0,3.0,34,0.00,,,0.00,Wunderground v.1.15,2013-11-11 18:24:00,
2013-11-11 13:29:00,58.9,29.8,30.17,SSW,195,2.0,11.0,33,0.00,,,0.00,Wunderground v.1.15,2013-11-11 18:29:00,
2013-11-11 13:34:00,59.2,30.8,30.17,South,171,1.0,4.0,34,0.00,,,0.00,Wunderground v.1.15,2013-11-11 18:34:00,
2013-11-11 13:39:00,59.5,31.8,30.16,SSE,167,3.0,7.0,35,0.00,,,0.00,Wunderground v.1.15,2013-11-11 18:39:00,
2013-11-11 13:46:00,59.9,31.4,30.16,SSE,167,0.0,3.0,34,0.00,,,0.00,Wunderground v.1.15,2013-11-11 18:46:00,
2013-11-11 13:51:00,59.8,31.3,30.16,SSE,151,6.0,11.0,34,0.00,,,0.00,Wunderground v.1.15,2013-11-11 18:51:00,
2013-11-11 13:57:00,59.6,31.9,30.16,South,182,5.0,5.0,35,0.00,,,0.00,Wunderground v.1.15,2013-11-11 18:57:00,
2013-11-11 14:02:00,59.8,30.6,30.16,SSE,161,3.0,12.0,33,0.00,,,0.00,Wunderground v.1.15,2013-11-11 19:02:00,
2013-11-11 14:07:00,59.6,31.2,30.16,South,181,2.0,7.0,34,0.00,,,0.00,Wunderground v.1.15,2013-11-11 19:07:00,
2013-11-11 14:12:00,60.1,31.6,30.16,SSE,167,5.0,7.0,34,0.00,,,0.00,Wunderground v.1.15,2013-11-11 19:12:00,
2013-11-11 14:17:00,60.1,31.6,30.16,SSE,150,2.0,7.0,34,0.00,,,0.00,Wunderground v.1.15,2013-11-11 19:17:00,
2013-11-11 14:22:00,60.2,30.2,30.15,South,175,3.0,10.0,32,0.00,,,0.00,Wunderground v.1.15,2013-11-11 19:22:00,
2013-11-11 14:27:00,60.2,30.2,30.15,SE,136,2.0,7.0,32,0.00,,,0.00,Wunderground v.1.15,2013-11-11 19:27:00,
2013-11-11 14:32:00,60.2,30.2,30.15,SSW,206,6.0,7.0,32,0.00,,,0.00,Wunderground v.1.15,2013-11-11 19:32:00,
2013-11-11 14:37:00,60.4,31.1,30.15,SW,233,2.0,6.0,33,0.00,,,0.00,Wunderground v.1.15,2013-11-11 19:37:00,
2013-11-11 14:42:00,60.7,31.4,30.15,South,169,1.0,7.0,33,0.00,,,0.00,Wunderground v.1.15,2013-11-11 19:42:00,
2013-11-11 14:47:00,60.4,30.4,30.15,South,181,0.0,5.0,32,0.00,,,0.00,Wunderground v.1.15,2013-11-11 19:47:00,
2013-11-11 14:52:00,60.2,31.7,30.15,SE,130,3.0,9.0,34,0.00,,,0.00,Wunderground v.1.15,2013-11-11 19:52:00,
2013-11-11 14:57:00,60.4,30.4,30.15,SSE,148,0.0,3.0,32,0.00,,,0.00,Wunderground v.1.15,2013-11-11 19:57:00,
2013-11-11 15:03:00,60.5,31.2,30.15,SSW,193,10.0,10.0,33,0.00,,,0.00,Wunderground v.1.15,2013-11-11 20:03:00,
2013-11-11 15:08:00,60.4,31.1,30.15,SE,124,0.0,7.0,33,0.00,,,0.00,Wunderground v.1.15,2013-11-11 20:08:00,
2013-11-11 15:13:00,60.2,31.0,30.15,South,186,2.0,8.0,33,0.00,,,0.00,Wunderground v.1.15,2013-11-11 20:13:00,
2013-11-11 15:18:00,60.4,31.1,30.15,SW,215,5.0,8.0,33,0.00,,,0.00,Wunderground v.1.15,2013-11-11 20:18:00,
2013-11-11 15:23:00,60.1,31.6,30.14,SW,232,3.0,10.0,34,0.00,,,0.00,Wunderground v.1.15,2013-11-11 20:23:00,
2013-11-11 15:28:00,59.9,31.4,30.14,South,182,2.0,6.0,34,0.00,,,0.00,Wunderground v.1.15,2013-11-11 20:28:00,
2013-11-11 15:33:00,59.5,31.1,30.14,South,186,6.0,11.0,34,0.00,,,0.00,Wunderground v.1.15,2013-11-11 20:33:00,
2013-11-11 15:38:00,59.3,32.3,30.15,SSW,192,11.0,11.0,36,0.00,,,0.00,Wunderground v.1.15,2013-11-11 20:38:00,
2013-11-11 15:43:00,59.0,31.4,30.15,SSW,196,10.0,11.0,35,0.00,,,0.00,Wunderground v.1.15,2013-11-11 20:43:00,
2013-11-11 15:50:00,58.9,32.0,30.15,SSW,208,0.0,9.0,36,0.00,,,0.00,Wunderground v.1.15,2013-11-11 20:50:00,
2013-11-11 15:57:00,58.9,33.3,30.15,South,176,3.0,7.0,38,0.00,,,0.00,Wunderground v.1.15,2013-11-11 20:57:00,
2013-11-11 16:02:00,58.7,31.8,30.15,SW,220,9.0,10.0,36,0.00,,,0.00,Wunderground v.1.15,2013-11-11 21:02:00,
2013-11-11 16:07:00,58.4,32.2,30.15,South,182,4.0,11.0,37,0.00,,,0.00,Wunderground v.1.15,2013-11-11 21:07:00,
2013-11-11 16:12:00,58.1,31.9,30.15,South,181,5.0,11.0,37,0.00,,,0.00,Wunderground v.1.15,2013-11-11 21:12:00,
2013-11-11 16:17:00,58.0,31.8,30.15,SSW,193,6.0,8.0,37,0.00,,,0.00,Wunderground v.1.15,2013-11-11 21:17:00,
2013-11-11 16:22:00,58.0,31.8,30.15,SSW,203,6.0,12.0,37,0.00,,,0.00,Wunderground v.1.15,2013-11-11 21:22:00,
2013-11-11 16:28:00,57.5,32.1,30.15,South,185,12.0,12.0,38,0.00,,,0.00,Wunderground v.1.15,2013-11-11 21:28:00,
2013-11-11 16:33:00,57.0,31.6,30.15,SSW,195,10.0,12.0,38,0.00,,,0.00,Wunderground v.1.15,2013-11-11 21:33:00,
2013-11-11 16:38:00,56.7,31.4,30.16,SSW,192,11.0,11.0,38,0.00,,,0.00,Wunderground v.1.15,2013-11-11 21:38:00,
2013-11-11 16:43:00,56.3,31.0,30.16,SSW,199,7.0,11.0,38,0.00,,,0.00,Wunderground v.1.15,2013-11-11 21:43:00,
2013-11-11 16:48:00,56.0,31.4,30.16,SSW,212,6.0,10.0,39,0.00,,,0.00,Wunderground v.1.15,2013-11-11 21:48:00,
2013-11-11 16:53:00,55.9,31.9,30.16,SSW,195,6.0,10.0,40,0.00,,,0.00,Wunderground v.1.15,2013-11-11 21:53:00,
2013-11-11 16:58:00,55.4,31.5,30.16,South,181,6.0,12.0,40,0.00,,,0.00,Wunderground v.1.15,2013-11-11 21:58:00,
2013-11-11 17:03:00,55.0,31.7,30.16,SSW,203,3.0,12.0,41,0.00,,,0.00,Wunderground v.1.15,2013-11-11 22:03:00,
2013-11-11 17:08:00,54.5,31.9,30.17,SSW,200,6.0,12.0,42,0.00,,,0.00,Wunderground v.1.15,2013-11-11 22:08:00,
2013-11-11 17:13:00,53.9,31.9,30.17,SW,217,7.0,12.0,43,0.00,,,0.00,Wunderground v.1.15,2013-11-11 22:13:00,
2013-11-11 17:18:00,53.3,31.4,30.17,SW,217,3.0,7.0,43,0.00,,,0.00,Wunderground v.1.15,2013-11-11 22:18:00,
2013-11-11 17:23:00,53.1,31.2,30.17,SSW,208,6.0,9.0,43,0.00,,,0.00,Wunderground v.1.15,2013-11-11 22:23:00,
2013-11-11 17:28:00,52.6,31.3,30.17,SW,232,6.0,9.0,44,0.00,,,0.00,Wunderground v.1.15,2013-11-11 22:28:00,
2013-11-11 17:34:00,52.3,31.0,30.17,SW,229,3.0,9.0,44,0.00,,,0.00,Wunderground v.1.15,2013-11-11 22:34:00,
2013-11-11 17:39:00,52.0,31.3,30.17,South,191,1.0,6.0,45,0.00,,,0.00,Wunderground v.1.15,2013-11-11 22:39:00,
2013-11-11 17:44:00,51.9,31.2,30.17,SSW,202,5.0,6.0,45,0.00,,,0.00,Wunderground v.1.15,2013-11-11 22:44:00,
2013-11-11 17:49:00,51.9,31.2,30.17,SW,222,6.0,6.0,45,0.00,,,0.00,Wunderground v.1.15,2013-11-11 22:49:00,
2013-11-11 17:54:00,51.4,31.3,30.17,SW,217,6.0,8.0,46,0.00,,,0.00,Wunderground v.1.15,2013-11-11 22:54:00,
2013-11-11 17:59:00,51.1,31.0,30.17,South,191,7.0,8.0,46,0.00,,,0.00,Wunderground v.1.15,2013-11-11 22:59:00,
2013-11-11 18:04:00,51.0,30.9,30.17,SSW,209,5.0,8.0,46,0.00,,,0.00,Wunderground v.1.15,2013-11-11 23:04:00,
2013-11-11 18:09:00,50.7,31.2,30.18,SW,224,6.0,6.0,47,0.00,,,0.00,Wunderground v.1.15,2013-11-11 23:09:00,
2013-11-11 18:14:00,50.8,31.3,30.18,WSW,243,2.0,8.0,47,0.00,,,0.00,Wunderground v.1.15,2013-11-11 23:14:00,
2013-11-11 18:19:00,50.7,31.2,30.18,SW,229,4.0,7.0,47,0.00,,,0.00,Wunderground v.1.15,2013-11-11 23:19:00,
2013-11-11 18:24:00,50.5,31.5,30.18,SW,230,3.0,8.0,48,0.00,,,0.00,Wunderground v.1.15,2013-11-11 23:24:00,
2013-11-11 18:29:00,50.2,31.2,30.18,WSW,243,4.0,8.0,48,0.00,,,0.00,Wunderground v.1.15,2013-11-11 23:29:00,
2013-11-11 18:34:00,50.1,31.7,30.18,SW,222,7.0,8.0,49,0.00,,,0.00,Wunderground v.1.15,2013-11-11 23:34:00,
2013-11-11 18:39:00,50.1,31.2,30.19,SW,227,7.0,8.0,48,0.00,,,0.00,Wunderground v.1.15,2013-11-11 23:39:00,
2013-11-11 18:44:00,49.9,31.0,30.19,SSW,212,4.0,8.0,48,0.00,,,0.00,Wunderground v.1.15,2013-11-11 23:44:00,
2013-11-11 18:49:00,49.6,31.2,30.19,SW,220,3.0,7.0,49,0.00,,,0.00,Wunderground v.1.15,2013-11-11 23:49:00,
2013-11-11 18:54:00,49.6,31.2,30.19,SW,219,3.0,7.0,49,0.00,,,0.00,Wunderground v.1.15,2013-11-11 23:54:00,
2013-11-11 18:59:00,49.4,31.0,30.19,SW,215,3.0,6.0,49,0.00,,,0.00,Wunderground v.1.15,2013-11-11 23:59:00,
2013-11-11 19:04:00,49.2,31.3,30.19,SW,215,2.0,6.0,50,0.00,,,0.00,Wunderground v.1.15,2013-11-12 00:04:00,
2013-11-11 19:09:00,48.9,31.1,30.19,SSW,213,3.0,6.0,50,0.00,,,0.00,Wunderground v.1.15,2013-11-12 00:09:00,
2013-11-11 19:14:00,48.8,31.0,30.19,SW,215,4.0,6.0,50,0.00,,,0.00,Wunderground v.1.15,2013-11-12 00:14:00,
2013-11-11 19:19:00,48.5,31.2,30.19,SW,216,5.0,6.0,51,0.00,,,0.00,Wunderground v.1.15,2013-11-12 00:19:00,
2013-11-11 19:24:00,48.2,31.4,30.19,SW,226,3.0,6.0,52,0.00,,,0.00,Wunderground v.1.15,2013-11-12 00:24:00,
2013-11-11 19:29:00,48.0,31.2,30.19,SW,216,5.0,6.0,52,0.00,,,0.00,Wunderground v.1.15,2013-11-12 00:29:00,
2013-11-11 19:34:00,48.0,31.2,30.19,SW,232,5.0,7.0,52,0.00,,,0.00,Wunderground v.1.15,2013-11-12 00:34:00,
2013-11-11 19:39:00,47.9,31.1,30.20,SW,230,3.0,6.0,52,0.00,,,0.00,Wunderground v.1.15,2013-11-12 00:39:00,
2013-11-11 19:44:00,47.9,31.1,30.20,WSW,239,5.0,6.0,52,0.00,,,0.00,Wunderground v.1.15,2013-11-12 00:44:00,
2013-11-11 19:49:00,47.9,31.1,30.20,SW,232,4.0,6.0,52,0.00,,,0.00,Wunderground v.1.15,2013-11-12 00:49:00,
2013-11-11 19:54:00,47.7,30.9,30.18,SW,230,5.0,7.0,52,0.00,,,0.00,Wunderground v.1.15,2013-11-12 00:54:00,
2013-11-11 19:59:00,47.7,30.9,30.18,WSW,244,3.0,6.0,52,0.00,,,0.00,Wunderground v.1.15,2013-11-12 00:59:00,
2013-11-11 20:04:00,47.6,30.8,30.18,SW,232,5.0,5.0,52,0.00,,,0.00,Wunderground v.1.15,2013-11-12 01:04:00,
2013-11-11 20:09:00,47.3,31.0,30.18,SW,220,3.0,6.0,53,0.00,,,0.00,Wunderground v.1.15,2013-11-12 01:09:00,
2013-11-11 20:14:00,47.0,30.7,30.18,SW,220,3.0,4.0,53,0.00,,,0.00,Wunderground v.1.15,2013-11-12 01:14:00,
2013-11-11 20:19:00,46.8,31.0,30.18,SW,220,4.0,6.0,54,0.00,,,0.00,Wunderground v.1.15,2013-11-12 01:19:00,
2013-11-11 20:24:00,46.5,30.7,30.18,SSW,210,3.0,4.0,54,0.00,,,0.00,Wunderground v.1.15,2013-11-12 01:24:00,
2013-11-11 20:29:00,46.5,30.7,30.18,SSW,210,5.0,5.0,54,0.00,,,0.00,Wunderground v.1.15,2013-11-12 01:29:00,
2013-11-11 20:34:00,46.5,30.7,30.18,SSW,212,3.0,3.0,54,0.00,,,0.00,Wunderground v.1.15,2013-11-12 01:34:00,
2013-11-11 20:39:00,46.2,30.9,30.19,SSW,209,6.0,6.0,55,0.00,,,0.00,Wunderground v.1.15,2013-11-12 01:39:00,
2013-11-11 20:44:00,46.1,30.8,30.19,SSW,206,5.0,6.0,55,0.00,,,0.00,Wunderground v.1.15,2013-11-12 01:44:00,
2013-11-11 20:50:00,46.0,30.7,30.19,SSW,213,4.0,6.0,55,0.00,,,0.00,Wunderground v.1.15,2013-11-12 01:50:00,
2013-11-11 20:55:00,45.7,30.9,30.17,SSW,213,3.0,4.0,56,0.00,,,0.00,Wunderground v.1.15,2013-11-12 01:55:00,
2013-11-11 21:00:00,45.7,30.9,30.17,SSW,213,2.0,6.0,56,0.00,,,0.00,Wunderground v.1.15,2013-11-12 02:00:00,
2013-11-11 21:07:00,45.4,31.0,30.17,SSW,212,3.0,5.0,57,0.00,,,0.00,Wunderground v.1.15,2013-11-12 02:07:00,
2013-11-11 21:12:00,45.2,31.3,30.17,SSW,208,5.0,6.0,58,0.00,,,0.00,Wunderground v.1.15,2013-11-12 02:12:00,
2013-11-11 21:17:00,44.9,31.0,30.17,SW,223,3.0,5.0,58,0.00,,,0.00,Wunderground v.1.15,2013-11-12 02:17:00,
2013-11-11 21:22:00,44.9,30.6,30.17,SW,223,2.0,5.0,57,0.00,,,0.00,Wunderground v.1.15,2013-11-12 02:22:00,
2013-11-11 21:27:00,44.9,30.6,30.17,SW,223,0.0,2.0,57,0.00,,,0.00,Wunderground v.1.15,2013-11-12 02:27:00,
2013-11-11 21:32:00,45.1,30.8,30.17,SW,223,2.0,3.0,57,0.00,,,0.00,Wunderground v.1.15,2013-11-12 02:32:00,
2013-11-11 21:37:00,45.1,30.8,30.17,SW,223,2.0,3.0,57,0.00,,,0.00,Wunderground v.1.15,2013-11-12 02:37:00,
2013-11-11 21:42:00,45.2,30.9,30.17,SW,223,3.0,4.0,57,0.00,,,0.00,Wunderground v.1.15,2013-11-12 02:42:00,
2013-11-11 21:47:00,45.4,30.6,30.17,SW,223,0.0,2.0,56,0.00,,,0.00,Wunderground v.1.15,2013-11-12 02:47:00,
2013-11-11 21:52:00,45.5,30.3,30.16,SW,223,0.0,2.0,55,0.00,,,0.00,Wunderground v.1.15,2013-11-12 02:52:00,
2013-11-11 21:57:00,45.5,30.7,30.16,SW,223,0.0,0.0,56,0.00,,,0.00,Wunderground v.1.15,2013-11-12 02:57:00,
2013-11-11 22:02:00,45.5,30.7,30.16,SW,223,2.0,2.0,56,0.00,,,0.00,Wunderground v.1.15,2013-11-12 03:02:00,
2013-11-11 22:08:00,45.5,30.3,30.16,SW,223,0.0,2.0,55,0.00,,,0.00,Wunderground v.1.15,2013-11-12 03:08:00,
2013-11-11 22:13:00,45.7,30.4,30.16,SW,223,0.0,2.0,55,0.00,,,0.00,Wunderground v.1.15,2013-11-12 03:13:00,
2013-11-11 22:18:00,45.7,30.4,30.16,SW,223,0.0,1.0,55,0.00,,,0.00,Wunderground v.1.15,2013-11-12 03:18:00,
2013-11-11 22:23:00,45.5,30.3,30.16,SW,223,0.0,1.0,55,0.00,,,0.00,Wunderground v.1.15,2013-11-12 03:23:00,
2013-11-11 22:28:00,45.5,30.3,30.16,SW,223,0.0,0.0,55,0.00,,,0.00,Wunderground v.1.15,2013-11-12 03:28:00,
2013-11-11 22:33:00,45.5,30.3,30.16,SW,222,0.0,0.0,55,0.00,,,0.00,Wunderground v.1.15,2013-11-12 03:33:00,
2013-11-11 22:38:00,45.5,30.3,30.16,SW,222,0.0,0.0,55,0.00,,,0.00,Wunderground v.1.15,2013-11-12 03:38:00,
2013-11-11 22:43:00,45.4,30.2,30.16,SW,222,0.0,0.0,55,0.00,,,0.00,Wunderground v.1.15,2013-11-12 03:43:00,
2013-11-11 22:48:00,45.2,30.4,30.16,SW,222,0.0,0.0,56,0.00,,,0.00,Wunderground v.1.15,2013-11-12 03:48:00,
2013-11-11 22:53:00,45.1,30.3,30.14,SW,222,2.0,2.0,56,0.00,,,0.00,Wunderground v.1.15,2013-11-12 03:53:00,
2013-11-11 22:58:00,45.1,30.3,30.14,SW,227,3.0,3.0,56,0.00,,,0.00,Wunderground v.1.15,2013-11-12 03:58:00,
2013-11-11 23:03:00,45.1,30.3,30.14,SW,230,2.0,3.0,56,0.00,,,0.00,Wunderground v.1.15,2013-11-12 04:03:00,
2013-11-11 23:08:00,44.9,30.6,30.13,SW,230,3.0,3.0,57,0.00,,,0.00,Wunderground v.1.15,2013-11-12 04:08:00,
2013-11-11 23:13:00,44.8,30.5,30.13,SW,230,3.0,3.0,57,0.00,,,0.00,Wunderground v.1.15,2013-11-12 04:13:00,
2013-11-11 23:18:00,45.1,29.9,30.13,SW,232,2.0,3.0,55,0.00,,,0.00,Wunderground v.1.15,2013-11-12 04:18:00,
2013-11-11 23:23:00,45.4,30.2,30.13,SW,232,0.0,3.0,55,0.00,,,0.00,Wunderground v.1.15,2013-11-12 04:23:00,
2013-11-11 23:28:00,45.2,30.9,30.13,SW,232,0.0,1.0,57,0.00,,,0.00,Wunderground v.1.15,2013-11-12 04:28:00,
2013-11-11 23:33:00,44.9,30.6,30.13,SW,232,0.0,1.0,57,0.00,,,0.00,Wunderground v.1.15,2013-11-12 04:33:00,
2013-11-11 23:38:00,44.8,30.9,30.13,East,100,1.0,2.0,58,0.00,,,0.00,Wunderground v.1.15,2013-11-12 04:38:00,
2013-11-11 23:44:00,44.6,30.7,30.13,East,100,0.0,2.0,58,0.00,,,0.00,Wunderground v.1.15,2013-11-12 04:44:00,
2013-11-11 23:49:00,44.3,30.9,30.13,East,100,0.0,1.0,59,0.00,,,0.00,Wunderground v.1.15,2013-11-12 04:49:00,
2013-11-11 23:54:00,44.2,32.4,30.12,East,100,0.0,1.0,63,0.00,,,0.00,Wunderground v.1.15,2013-11-12 04:54:00,
2013-11-11 23:59:00,44.1,30.3,30.12,East,100,0.0,0.0,58,0.00,,,0.00,Wunderground v.1.15,2013-11-12 04:59:00,